DLH6FR ENBR-EDDF

Flight info

Callsign DLH6FR
Flight time 1h 44m
Altitude 37000
Route TUXIL DCT ZOL DCT GREFI DCT SOGPO DCT DIXAT DIXAT1A
Aircraft A320/M-SDE3FGHIRWY/LB1

Departure

Time 2026-05-06 17:48
Airport Bergen Airport, Flesland (ENBR)

Arrival

Time 2026-05-06 19:33
Airport Frankfurt Main Airport (EDDF)
Time Latitude Longitude Altitude Speed Heading
2026-05-06 16:56 60.29090 5.22634 152 ft 0 kts 11°
2026-05-06 16:59 60.29086 5.22548 152 ft 0 kts 23°
2026-05-06 17:34 60.29079 5.22543 152 ft 2 kts 23°
2026-05-06 17:34 60.29061 5.22527 152 ft 3 kts 23°
2026-05-06 17:34 60.29042 5.22511 151 ft 2 kts 23°
2026-05-06 17:35 60.29037 5.22506 151 ft 0 kts 23°
2026-05-06 17:39 60.29039 5.22505 151 ft 0 kts
2026-05-06 17:40 60.29041 5.22498 151 ft 0 kts 320°
2026-05-06 17:40 60.29039 5.22487 151 ft 1 kts 261°
2026-05-06 17:40 60.29036 5.22417 151 ft 7 kts 272°
2026-05-06 17:40 60.29069 5.22346 152 ft 8 kts 329°
2026-05-06 17:41 60.29090 5.22247 152 ft 9 kts 294°
2026-05-06 17:41 60.29148 5.22205 152 ft 10 kts 351°
2026-05-06 17:41 60.29219 5.22181 153 ft 11 kts 351°
2026-05-06 17:41 60.29296 5.22155 154 ft 12 kts 350°
2026-05-06 17:42 60.29381 5.22123 155 ft 13 kts 349°
2026-05-06 17:42 60.29478 5.22094 155 ft 15 kts 351°
2026-05-06 17:42 60.29583 5.22058 156 ft 16 kts 350°
2026-05-06 17:42 60.29696 5.22018 157 ft 14 kts 350°
2026-05-06 17:43 60.29797 5.21984 158 ft 16 kts 350°
2026-05-06 17:43 60.29909 5.21946 159 ft 17 kts 351°
2026-05-06 17:43 60.30032 5.21906 160 ft 19 kts 351°
2026-05-06 17:43 60.30157 5.21864 161 ft 17 kts 351°
2026-05-06 17:44 60.30283 5.21822 162 ft 19 kts 350°
2026-05-06 17:44 60.30417 5.21776 163 ft 19 kts 350°
2026-05-06 17:44 60.30545 5.21734 165 ft 17 kts 350°
2026-05-06 17:44 60.30630 5.21703 165 ft 9 kts 346°
2026-05-06 17:45 60.30665 5.21619 166 ft 8 kts 276°
2026-05-06 17:45 60.30662 5.21576 166 ft 0 kts 260°
2026-05-06 17:46 60.30661 5.21559 166 ft 4 kts 259°
2026-05-06 17:46 60.30654 5.21481 167 ft 7 kts 260°
2026-05-06 17:46 60.30644 5.21391 168 ft 6 kts 244°
2026-05-06 17:47 60.30611 5.21388 168 ft 5 kts 166°
2026-05-06 17:47 60.30585 5.21398 167 ft 8 kts 170°
2026-05-06 17:47 60.30356 5.21473 161 ft 70 kts 170°
2026-05-06 17:47 60.29336 5.21817 154 ft 150 kts 171°
2026-05-06 17:48 60.28217 5.22200 585 ft 163 kts 170°
2026-05-06 17:48 60.27472 5.22460 1124 ft 163 kts 171°
2026-05-06 17:48 60.26332 5.22849 1713 ft 174 kts 172°
2026-05-06 17:48 60.25063 5.23259 2040 ft 194 kts 172°
2026-05-06 17:49 60.23667 5.23732 2393 ft 211 kts 172°
2026-05-06 17:49 60.22170 5.24256 2734 ft 233 kts 172°
2026-05-06 17:49 60.20485 5.24815 3171 ft 256 kts 173°
2026-05-06 17:49 60.18691 5.25394 3951 ft 263 kts 173°
2026-05-06 17:50 60.16872 5.25982 4883 ft 266 kts 173°
2026-05-06 17:50 60.15023 5.26590 5789 ft 269 kts 173°
2026-05-06 17:50 60.13186 5.27196 6648 ft 273 kts 173°
2026-05-06 17:50 60.11300 5.27822 7487 ft 276 kts 173°
2026-05-06 17:51 60.09392 5.28459 8325 ft 280 kts 173°
2026-05-06 17:51 60.07454 5.29054 9156 ft 283 kts 174°
2026-05-06 17:51 60.05481 5.29593 9908 ft 290 kts 175°
2026-05-06 17:51 60.03446 5.30117 10432 ft 303 kts 176°
2026-05-06 17:52 60.01268 5.30666 10675 ft 326 kts 176°
2026-05-06 17:52 59.98960 5.31251 10887 ft 348 kts 176°
2026-05-06 17:52 59.96520 5.31886 11453 ft 356 kts 176°
2026-05-06 17:52 59.94047 5.32545 12165 ft 360 kts 177°
2026-05-06 17:53 59.91548 5.33217 12913 ft 363 kts 178°
2026-05-06 17:53 59.89030 5.33892 13664 ft 366 kts 179°
2026-05-06 17:53 59.86520 5.34563 14349 ft 369 kts 179°
2026-05-06 17:53 59.83963 5.35243 15009 ft 371 kts 179°
2026-05-06 17:54 59.81383 5.35921 15660 ft 373 kts 179°
2026-05-06 17:54 59.78829 5.36565 16287 ft 375 kts 180°
2026-05-06 17:54 59.76228 5.37083 16894 ft 376 kts 182°
2026-05-06 17:54 59.73608 5.37502 17527 ft 377 kts 183°
2026-05-06 17:55 59.70980 5.37881 18138 ft 379 kts 183°
2026-05-06 17:55 59.68338 5.38259 18682 ft 382 kts 183°
2026-05-06 17:55 59.65678 5.38652 19170 ft 385 kts 183°
2026-05-06 17:55 59.62988 5.39116 19655 ft 389 kts 181°
2026-05-06 17:56 59.60312 5.39733 20128 ft 393 kts 180°
2026-05-06 17:56 59.57582 5.40453 20613 ft 397 kts 180°
2026-05-06 17:56 59.54826 5.41214 21078 ft 400 kts 180°
2026-05-06 17:56 59.52053 5.41980 21534 ft 403 kts 180°
2026-05-06 17:57 59.49256 5.42735 21987 ft 406 kts 180°
2026-05-06 17:57 59.46448 5.43468 22373 ft 409 kts 180°
2026-05-06 17:57 59.43642 5.44180 22795 ft 411 kts 180°
2026-05-06 17:57 59.40787 5.44892 23232 ft 414 kts 180°
2026-05-06 17:58 59.37910 5.45695 23659 ft 419 kts 178°
2026-05-06 17:58 59.35062 5.46663 24022 ft 422 kts 177°
2026-05-06 17:58 59.32170 5.47449 24400 ft 417 kts 184°
2026-05-06 17:58 59.29269 5.47794 24796 ft 417 kts 184°
2026-05-06 17:59 59.26368 5.48084 25201 ft 417 kts 185°
2026-05-06 17:59 59.23457 5.48354 25590 ft 418 kts 185°
2026-05-06 17:59 59.20544 5.48614 25959 ft 419 kts 185°
2026-05-06 17:59 59.17620 5.48879 26179 ft 423 kts 184°
2026-05-06 18:00 59.14693 5.49147 26306 ft 430 kts 184°
2026-05-06 18:00 59.11685 5.49428 26438 ft 435 kts 184°
2026-05-06 18:00 59.08638 5.49720 26571 ft 441 kts 184°
2026-05-06 18:00 59.05557 5.50026 26763 ft 445 kts 184°
2026-05-06 18:01 59.02460 5.50343 27095 ft 445 kts 184°
2026-05-06 18:01 58.99365 5.50659 27499 ft 443 kts 184°
2026-05-06 18:01 58.96292 5.50970 27926 ft 441 kts 184°
2026-05-06 18:01 58.93231 5.51277 28365 ft 439 kts 184°
2026-05-06 18:02 58.90179 5.51579 28736 ft 438 kts 184°
2026-05-06 18:02 58.87169 5.51869 29086 ft 438 kts 184°
2026-05-06 18:02 58.84112 5.52159 29480 ft 437 kts 184°
2026-05-06 18:02 58.81077 5.52452 29891 ft 436 kts 184°
2026-05-06 18:03 58.78080 5.52748 30272 ft 434 kts 184°
2026-05-06 18:03 58.75058 5.53047 30588 ft 434 kts 184°
2026-05-06 18:03 58.72031 5.53345 30884 ft 434 kts 184°
2026-05-06 18:03 58.69011 5.53636 31171 ft 434 kts 184°
2026-05-06 18:04 58.65989 5.53919 31457 ft 434 kts 184°
2026-05-06 18:04 58.62963 5.54203 31744 ft 435 kts 184°
2026-05-06 18:04 58.59936 5.54492 32036 ft 435 kts 184°
2026-05-06 18:04 58.56912 5.54785 32324 ft 435 kts 184°
2026-05-06 18:05 58.53906 5.55080 32609 ft 435 kts 184°
2026-05-06 18:05 58.50871 5.55374 32898 ft 435 kts 184°
2026-05-06 18:05 58.47837 5.55664 33184 ft 436 kts 184°
2026-05-06 18:05 58.44804 5.55951 33466 ft 436 kts 184°
2026-05-06 18:06 58.41811 5.56234 33777 ft 436 kts 184°
2026-05-06 18:06 58.38772 5.56521 34036 ft 436 kts 184°
2026-05-06 18:06 58.35729 5.56812 34278 ft 436 kts 184°
2026-05-06 18:06 58.32689 5.57104 34506 ft 436 kts 183°
2026-05-06 18:07 58.29654 5.57394 34742 ft 436 kts 183°
2026-05-06 18:07 58.26623 5.57683 34956 ft 436 kts 183°
2026-05-06 18:07 58.23587 5.57969 35157 ft 437 kts 183°
2026-05-06 18:07 58.20578 5.58253 35350 ft 438 kts 183°
2026-05-06 18:08 58.17524 5.58542 35540 ft 438 kts 183°
2026-05-06 18:08 58.14460 5.58828 35723 ft 439 kts 183°
2026-05-06 18:08 58.11403 5.59108 35906 ft 440 kts 183°
2026-05-06 18:08 58.08381 5.59382 36083 ft 440 kts 182°
2026-05-06 18:09 58.05311 5.59660 36239 ft 440 kts 182°
2026-05-06 18:09 58.02247 5.59946 36432 ft 441 kts 182°
2026-05-06 18:09 57.99176 5.60244 36606 ft 441 kts 182°
2026-05-06 18:09 57.96099 5.60542 36774 ft 442 kts 182°
2026-05-06 18:10 57.93022 5.60838 36951 ft 442 kts 182°
2026-05-06 18:10 57.89937 5.61130 37037 ft 444 kts 182°
2026-05-06 18:10 57.83745 5.61686 37047 ft 451 kts 182°
2026-05-06 18:11 57.77425 5.62252 37041 ft 453 kts 182°
2026-05-06 18:11 57.71151 5.62825 37043 ft 453 kts 182°
2026-05-06 18:12 57.64837 5.63404 37043 ft 453 kts 182°
2026-05-06 18:12 57.58579 5.63975 37045 ft 453 kts 182°
2026-05-06 18:13 57.52284 5.64545 37011 ft 453 kts 181°
2026-05-06 18:13 57.45977 5.65107 37033 ft 452 kts 182°
2026-05-06 18:14 57.39676 5.65663 37044 ft 452 kts 182°
2026-05-06 18:14 57.33423 5.66230 37047 ft 452 kts 182°
2026-05-06 18:15 57.27137 5.66799 37048 ft 452 kts 182°
2026-05-06 18:15 57.20846 5.67356 37033 ft 452 kts 181°
2026-05-06 18:16 57.14563 5.67917 37048 ft 452 kts 181°
2026-05-06 18:16 57.08301 5.68475 37055 ft 452 kts 181°
2026-05-06 18:17 57.01996 5.69027 37052 ft 452 kts 182°
2026-05-06 18:17 56.95733 5.69566 37034 ft 452 kts 181°
2026-05-06 18:18 56.89446 5.70104 37050 ft 452 kts 181°
2026-05-06 18:18 56.83193 5.70656 37062 ft 452 kts 181°
2026-05-06 18:19 56.76903 5.71221 37066 ft 452 kts 181°
2026-05-06 18:19 56.70613 5.71773 37039 ft 452 kts 181°
2026-05-06 18:20 56.64363 5.72304 37047 ft 451 kts 181°
2026-05-06 18:20 56.58082 5.72838 37053 ft 451 kts 181°
2026-05-06 18:21 56.51838 5.73373 37054 ft 450 kts 181°
2026-05-06 18:21 56.45555 5.73922 37054 ft 450 kts 181°
2026-05-06 18:22 56.39326 5.74450 37039 ft 450 kts 181°
2026-05-06 18:22 56.33055 5.74977 37048 ft 449 kts 181°
2026-05-06 18:23 56.26804 5.75491 37055 ft 448 kts 181°
2026-05-06 18:23 56.20601 5.76017 37057 ft 448 kts 181°
2026-05-06 18:24 56.14376 5.76550 37042 ft 447 kts 181°
2026-05-06 18:24 56.08147 5.77074 37049 ft 447 kts 181°
2026-05-06 18:25 56.01967 5.77593 37052 ft 447 kts 181°
2026-05-06 18:25 55.95740 5.78109 37049 ft 447 kts 181°
2026-05-06 18:26 55.89522 5.78631 37050 ft 447 kts 181°
2026-05-06 18:26 55.83315 5.79145 37052 ft 447 kts 181°
2026-05-06 18:27 55.77127 5.79649 37053 ft 447 kts 181°
2026-05-06 18:27 55.70886 5.80154 37049 ft 447 kts 181°
2026-05-06 18:28 55.64685 5.80656 37022 ft 448 kts 181°
2026-05-06 18:28 55.58445 5.81173 37032 ft 448 kts 181°
2026-05-06 18:29 55.52262 5.81692 37039 ft 447 kts 181°
2026-05-06 18:29 55.46040 5.82192 37040 ft 447 kts 181°
2026-05-06 18:30 55.39816 5.82694 37036 ft 446 kts 181°
2026-05-06 18:30 55.33626 5.83200 37026 ft 446 kts 181°
2026-05-06 18:31 55.27404 5.83693 37028 ft 447 kts 181°
2026-05-06 18:31 55.21221 5.84184 37034 ft 447 kts 181°
2026-05-06 18:32 55.14989 5.84691 37033 ft 447 kts 181°
2026-05-06 18:32 55.08802 5.85193 37014 ft 447 kts 181°
2026-05-06 18:33 55.03641 5.85594 37024 ft 447 kts 181°
2026-05-06 18:33 54.97424 5.86121 37027 ft 447 kts 180°
2026-05-06 18:34 54.91198 5.86974 37019 ft 448 kts 178°
2026-05-06 18:34 54.84982 5.87942 36991 ft 448 kts 178°
2026-05-06 18:35 54.78804 5.88855 37003 ft 448 kts 179°
2026-05-06 18:35 54.72577 5.89717 37007 ft 448 kts 179°
2026-05-06 18:36 54.66381 5.90541 37008 ft 448 kts 179°
2026-05-06 18:36 54.60182 5.91382 36993 ft 448 kts 179°
2026-05-06 18:37 54.53957 5.92238 36990 ft 448 kts 178°
2026-05-06 18:37 54.47730 5.93084 36993 ft 448 kts 178°
2026-05-06 18:38 54.41489 5.93931 36993 ft 449 kts 178°
2026-05-06 18:38 54.35297 5.94773 36997 ft 449 kts 178°
2026-05-06 18:39 54.29063 5.95611 36990 ft 449 kts 178°
2026-05-06 18:40 54.19734 5.96859 36984 ft 449 kts 178°
2026-05-06 18:40 54.13491 5.97696 36992 ft 449 kts 178°
2026-05-06 18:41 54.07238 5.98534 36978 ft 450 kts 178°
2026-05-06 18:41 54.01020 5.99359 36979 ft 450 kts 178°
2026-05-06 18:42 53.94758 6.00196 36976 ft 450 kts 178°
2026-05-06 18:42 53.88503 6.01024 36975 ft 450 kts 178°
2026-05-06 18:43 53.82286 6.01840 36971 ft 450 kts 178°
2026-05-06 18:43 53.76029 6.02659 36981 ft 450 kts 178°
2026-05-06 18:44 53.69771 6.03487 36978 ft 450 kts 178°
2026-05-06 18:44 53.63559 6.04300 36960 ft 450 kts 178°
2026-05-06 18:45 53.57342 6.05116 36960 ft 450 kts 178°
2026-05-06 18:45 53.51090 6.05919 36960 ft 450 kts 178°
2026-05-06 18:46 53.44838 6.06728 36953 ft 450 kts 178°
2026-05-06 18:46 53.38580 6.07535 36969 ft 450 kts 178°
2026-05-06 18:47 53.32367 6.08335 36972 ft 450 kts 178°
2026-05-06 18:47 53.26112 6.09150 36965 ft 450 kts 178°
2026-05-06 18:48 53.19842 6.09956 36975 ft 450 kts 178°
2026-05-06 18:48 53.13620 6.10754 36972 ft 450 kts 178°
2026-05-06 18:49 53.07357 6.11557 36946 ft 450 kts 178°
2026-05-06 18:49 53.01130 6.12355 36949 ft 450 kts 178°
2026-05-06 18:50 52.94868 6.13145 36943 ft 450 kts 178°
2026-05-06 18:50 52.88649 6.13926 36945 ft 450 kts 178°
2026-05-06 18:51 52.82402 6.14707 36934 ft 450 kts 178°
2026-05-06 18:51 52.76159 6.15488 36934 ft 450 kts 178°
2026-05-06 18:52 52.69914 6.16269 36938 ft 450 kts 178°
2026-05-06 18:52 52.63700 6.17032 36938 ft 450 kts 178°
2026-05-06 18:53 52.57437 6.17806 36928 ft 450 kts 178°
2026-05-06 18:53 52.51225 6.18580 36934 ft 450 kts 178°
2026-05-06 18:54 52.44979 6.19364 36934 ft 450 kts 178°
2026-05-06 18:54 52.38738 6.20142 36936 ft 450 kts 178°
2026-05-06 18:55 52.32497 6.20915 36935 ft 449 kts 178°
2026-05-06 18:55 52.26257 6.21677 36934 ft 449 kts 178°
2026-05-06 18:56 52.20016 6.22437 36935 ft 449 kts 178°
2026-05-06 18:56 52.13817 6.23198 36934 ft 449 kts 178°
2026-05-06 18:57 52.07574 6.23950 36925 ft 449 kts 178°
2026-05-06 18:57 52.01327 6.24754 36933 ft 450 kts 174°
2026-05-06 18:58 51.95377 6.27688 36949 ft 452 kts 155°
2026-05-06 18:58 51.92690 6.30358 36951 ft 454 kts 144°
2026-05-06 18:58 51.90216 6.33556 36947 ft 454 kts 143°
2026-05-06 18:59 51.85312 6.39979 36932 ft 453 kts 143°
2026-05-06 18:59 51.80432 6.46351 36935 ft 452 kts 143°
2026-05-06 19:00 51.75518 6.52739 36935 ft 452 kts 143°
2026-05-06 19:00 51.70634 6.59053 36939 ft 452 kts 143°
2026-05-06 19:01 51.65712 6.65408 36935 ft 452 kts 143°
2026-05-06 19:01 51.60821 6.71716 36883 ft 452 kts 143°
2026-05-06 19:01 51.58362 6.74875 36622 ft 451 kts 143°
2026-05-06 19:02 51.55910 6.78026 36349 ft 450 kts 144°
2026-05-06 19:02 51.53460 6.81165 36095 ft 449 kts 144°
2026-05-06 19:02 51.51016 6.84289 35845 ft 449 kts 144°
2026-05-06 19:02 51.48573 6.87408 35596 ft 448 kts 144°
2026-05-06 19:03 51.46121 6.90532 35349 ft 448 kts 144°
2026-05-06 19:03 51.43709 6.93604 35103 ft 448 kts 144°
2026-05-06 19:03 51.41265 6.96721 34859 ft 448 kts 144°
2026-05-06 19:03 51.38820 6.99834 34617 ft 447 kts 144°
2026-05-06 19:04 51.36378 7.02928 34384 ft 447 kts 144°
2026-05-06 19:04 51.33968 7.05976 34103 ft 447 kts 143°
2026-05-06 19:04 51.31513 7.09075 33067 ft 453 kts 143°
2026-05-06 19:04 51.29022 7.12212 32101 ft 455 kts 143°
2026-05-06 19:05 51.26440 7.15171 31117 ft 457 kts 150°
2026-05-06 19:05 51.23636 7.17579 30058 ft 460 kts 154°
2026-05-06 19:05 51.20745 7.19888 29000 ft 462 kts 155°
2026-05-06 19:05 51.17907 7.22136 28515 ft 451 kts 155°
2026-05-06 19:06 51.15126 7.24323 27801 ft 446 kts 155°
2026-05-06 19:06 51.12355 7.26500 27141 ft 440 kts 155°
2026-05-06 19:06 51.09617 7.28675 26482 ft 436 kts 154°
2026-05-06 19:06 51.06934 7.30866 26011 ft 430 kts 154°
2026-05-06 19:07 51.04310 7.33040 25851 ft 429 kts 153°
2026-05-06 19:07 51.02527 7.34525 25884 ft 429 kts 153°
2026-05-06 19:07 50.99009 7.37453 25888 ft 429 kts 153°
2026-05-06 19:07 50.96360 7.39650 25887 ft 429 kts 153°
2026-05-06 19:08 50.93737 7.41817 25887 ft 429 kts 154°
2026-05-06 19:08 50.91081 7.44000 25886 ft 429 kts 154°
2026-05-06 19:08 50.88421 7.46175 25886 ft 429 kts 154°
2026-05-06 19:08 50.85761 7.48342 25885 ft 429 kts 154°
2026-05-06 19:09 50.83098 7.50512 25878 ft 429 kts 154°
2026-05-06 19:09 50.80450 7.52671 25501 ft 426 kts 154°
2026-05-06 19:09 50.77814 7.54818 24013 ft 428 kts 154°
2026-05-06 19:09 50.75154 7.56982 22512 ft 430 kts 154°
2026-05-06 19:10 50.72522 7.59117 21212 ft 426 kts 154°
2026-05-06 19:10 50.69900 7.61245 20025 ft 421 kts 154°
2026-05-06 19:10 50.67313 7.63347 18885 ft 415 kts 154°
2026-05-06 19:10 50.64745 7.65433 17743 ft 410 kts 154°
2026-05-06 19:11 50.62225 7.67470 16573 ft 404 kts 155°
2026-05-06 19:11 50.59768 7.69449 15647 ft 394 kts 155°
2026-05-06 19:11 50.57381 7.71377 15348 ft 379 kts 155°
2026-05-06 19:11 50.55030 7.73275 14991 ft 377 kts 155°
2026-05-06 19:12 50.52708 7.75141 14566 ft 373 kts 155°
2026-05-06 19:12 50.50405 7.76987 14143 ft 370 kts 155°
2026-05-06 19:12 50.48145 7.78798 13724 ft 367 kts 155°
2026-05-06 19:12 50.45870 7.80623 13261 ft 365 kts 155°
2026-05-06 19:13 50.43633 7.82518 12848 ft 364 kts 149°
2026-05-06 19:13 50.41593 7.84886 12216 ft 366 kts 143°
2026-05-06 19:13 50.39600 7.87369 11703 ft 362 kts 143°
2026-05-06 19:13 50.37689 7.89751 11383 ft 352 kts 144°
2026-05-06 19:14 50.35737 7.92173 10438 ft 362 kts 144°
2026-05-06 19:14 50.33768 7.94610 10044 ft 355 kts 144°
2026-05-06 19:14 50.31869 7.96962 9880 ft 341 kts 144°
2026-05-06 19:14 50.30043 7.99223 9832 ft 324 kts 144°
2026-05-06 19:15 50.28333 8.01332 9850 ft 308 kts 144°
2026-05-06 19:15 50.26702 8.03390 9848 ft 296 kts 140°
2026-05-06 19:15 50.25341 8.05810 9850 ft 297 kts 130°
2026-05-06 19:15 50.24087 8.08367 9849 ft 296 kts 130°
2026-05-06 19:16 50.22828 8.10929 9846 ft 296 kts 130°
2026-05-06 19:16 50.21586 8.13451 9850 ft 296 kts 130°
2026-05-06 19:16 50.20328 8.16006 9847 ft 295 kts 130°
2026-05-06 19:16 50.19074 8.18550 9829 ft 296 kts 130°
2026-05-06 19:17 50.17813 8.21097 9443 ft 297 kts 130°
2026-05-06 19:17 50.16555 8.23632 9269 ft 293 kts 130°
2026-05-06 19:17 50.15323 8.26112 9185 ft 293 kts 130°
2026-05-06 19:17 50.14100 8.28658 9042 ft 293 kts 126°
2026-05-06 19:18 50.13076 8.31424 8916 ft 295 kts 118°
2026-05-06 19:18 50.12309 8.34395 8780 ft 296 kts 110°
2026-05-06 19:18 50.11819 8.37503 8644 ft 296 kts 101°
2026-05-06 19:18 50.11651 8.39618 8557 ft 297 kts 95°
2026-05-06 19:19 50.11689 8.43893 8364 ft 296 kts 85°
2026-05-06 19:19 50.12049 8.47044 8065 ft 292 kts 76°
2026-05-06 19:19 50.12440 8.49037 7958 ft 286 kts 70°
2026-05-06 19:19 50.13142 8.51933 7840 ft 285 kts 70°
2026-05-06 19:20 50.13837 8.54829 7708 ft 284 kts 70°
2026-05-06 19:20 50.14523 8.57709 7486 ft 282 kts 70°
2026-05-06 19:20 50.15193 8.60538 7138 ft 280 kts 70°
2026-05-06 19:20 50.15866 8.63384 6783 ft 279 kts 70°
2026-05-06 19:21 50.16538 8.66215 6432 ft 277 kts 70°
2026-05-06 19:21 50.17210 8.69038 6072 ft 276 kts 70°
2026-05-06 19:21 50.17877 8.71846 5720 ft 274 kts 70°
2026-05-06 19:21 50.18527 8.74601 5384 ft 272 kts 70°
2026-05-06 19:22 50.19179 8.77358 5028 ft 270 kts 70°
2026-05-06 19:22 50.19825 8.80094 4678 ft 268 kts 70°
2026-05-06 19:22 50.20465 8.82816 4322 ft 266 kts 70°
2026-05-06 19:22 50.21098 8.85516 4018 ft 263 kts 69°
2026-05-06 19:23 50.21730 8.88207 3992 ft 263 kts 70°
2026-05-06 19:23 50.22354 8.90870 3992 ft 252 kts 69°
2026-05-06 19:23 50.22937 8.93357 3993 ft 238 kts 69°
2026-05-06 19:23 50.23496 8.95746 3993 ft 236 kts 69°
2026-05-06 19:24 50.24058 8.98153 3995 ft 235 kts 69°
2026-05-06 19:24 50.24589 9.00563 3990 ft 235 kts 77°
2026-05-06 19:24 50.24523 9.03084 3993 ft 234 kts 111°
2026-05-06 19:24 50.23612 9.05123 3993 ft 229 kts 146°
2026-05-06 19:25 50.22194 9.06024 3996 ft 223 kts 179°
2026-05-06 19:25 50.20718 9.05548 3995 ft 216 kts 213°
2026-05-06 19:25 50.19513 9.04161 4002 ft 216 kts 223°
2026-05-06 19:25 50.18384 9.02617 3998 ft 215 kts 224°
2026-05-06 19:26 50.17267 9.01061 3999 ft 215 kts 224°
2026-05-06 19:26 50.16151 8.99498 4001 ft 215 kts 224°
2026-05-06 19:26 50.15050 8.97947 4003 ft 215 kts 224°
2026-05-06 19:26 50.13934 8.96380 4012 ft 215 kts 224°
2026-05-06 19:27 50.12826 8.94800 4010 ft 215 kts 228°
2026-05-06 19:27 50.12074 8.92860 4008 ft 204 kts 250°
2026-05-06 19:27 50.11607 8.90848 4009 ft 191 kts 251°
2026-05-06 19:27 50.11173 8.88981 4003 ft 179 kts 251°
2026-05-06 19:28 50.10755 8.87196 4017 ft 173 kts 251°
2026-05-06 19:28 50.10341 8.85433 3943 ft 173 kts 251°
2026-05-06 19:28 50.09930 8.83686 3769 ft 171 kts 251°
2026-05-06 19:28 50.09517 8.81933 3556 ft 173 kts 252°
2026-05-06 19:29 50.09102 8.80169 3334 ft 174 kts 251°
2026-05-06 19:29 50.08682 8.78390 3098 ft 176 kts 251°
2026-05-06 19:29 50.08262 8.76610 2859 ft 178 kts 252°
2026-05-06 19:29 50.07834 8.74801 2640 ft 177 kts 252°
2026-05-06 19:30 50.07413 8.73021 2386 ft 172 kts 252°
2026-05-06 19:30 50.07001 8.71283 2144 ft 169 kts 253°
2026-05-06 19:30 50.06599 8.69586 1917 ft 163 kts 253°
2026-05-06 19:30 50.06226 8.68017 1732 ft 146 kts 253°
2026-05-06 19:31 50.05890 8.66603 1508 ft 137 kts 253°
2026-05-06 19:31 50.05562 8.65210 1315 ft 136 kts 253°
2026-05-06 19:31 50.04925 8.62468 966 ft 136 kts 253°
2026-05-06 19:32 50.04577 8.61097 796 ft 136 kts 250°
2026-05-06 19:32 50.04260 8.59712 598 ft 136 kts 251°
2026-05-06 19:32 50.03932 8.58341 391 ft 135 kts 251°
2026-05-06 19:32 50.03658 8.57195 358 ft 78 kts 249°
2026-05-06 19:33 50.03547 8.56732 356 ft 35 kts 250°
2026-05-06 19:33 50.03468 8.56397 361 ft 29 kts 250°
2026-05-06 19:33 50.03436 8.56134 355 ft 24 kts 269°
2026-05-06 19:33 50.03454 8.55912 349 ft 18 kts 280°
2026-05-06 19:34 50.03476 8.55738 349 ft 13 kts 294°
2026-05-06 19:34 50.03549 8.55721 350 ft 11 kts 43°
2026-05-06 19:34 50.03577 8.55828 353 ft 12 kts 70°
2026-05-06 19:34 50.03605 8.55947 352 ft 11 kts 69°
2026-05-06 19:35 50.03648 8.56126 358 ft 21 kts 70°
2026-05-06 19:35 50.03702 8.56352 357 ft 23 kts 69°
2026-05-06 19:35 50.03759 8.56594 358 ft 25 kts 69°
2026-05-06 19:35 50.03821 8.56851 359 ft 26 kts 70°
2026-05-06 19:36 50.03884 8.57115 363 ft 26 kts 70°
2026-05-06 19:36 50.03945 8.57370 363 ft 25 kts 69°
2026-05-06 19:36 50.04006 8.57626 367 ft 26 kts 70°
2026-05-06 19:36 50.04070 8.57892 369 ft 27 kts 69°
2026-05-06 19:37 50.04130 8.58143 371 ft 24 kts 69°
2026-05-06 19:37 50.04188 8.58385 371 ft 20 kts 69°
2026-05-06 19:37 50.04239 8.58595 369 ft 21 kts 69°
2026-05-06 19:37 50.04291 8.58812 373 ft 21 kts 69°
2026-05-06 19:38 50.04333 8.58988 376 ft 16 kts 70°
2026-05-06 19:38 50.04368 8.59132 377 ft 14 kts 69°
2026-05-06 19:38 50.04400 8.59265 376 ft 13 kts 70°
2026-05-06 19:38 50.04429 8.59388 376 ft 11 kts 69°
2026-05-06 19:39 50.04459 8.59464 375 ft 8 kts 35°
2026-05-06 19:39 50.04511 8.59472 374 ft 8 kts 357°
2026-05-06 19:39 50.04561 8.59468 373 ft 2 kts 358°
2026-05-06 19:40 50.04582 8.59467 373 ft 9 kts 358°
2026-05-06 19:41 50.04648 8.59460 372 ft 10 kts 351°
2026-05-06 19:41 50.04720 8.59434 372 ft 11 kts 341°
2026-05-06 19:41 50.04770 8.59403 372 ft 7 kts 339°
2026-05-06 19:41 50.04815 8.59378 371 ft 8 kts 340°
2026-05-06 19:42 50.04871 8.59359 370 ft 6 kts
2026-05-06 19:42 50.04912 8.59374 367 ft 6 kts
2026-05-06 19:42 50.04957 8.59361 371 ft 7 kts 341°
2026-05-06 19:42 50.05009 8.59332 365 ft 8 kts 339°
2026-05-06 19:43 50.05056 8.59302 364 ft 6 kts 335°
2026-05-06 19:43 50.05065 8.59293 363 ft 1 kts 324°
2026-05-06 19:43 50.05073 8.59279 362 ft 3 kts 307°
2026-05-06 19:43 50.05081 8.59228 361 ft 8 kts 270°
2026-05-06 19:44 50.05064 8.59146 361 ft 8 kts 250°
2026-05-06 19:44 50.05047 8.59074 364 ft 7 kts 249°
2026-05-06 19:44 50.05025 8.58982 364 ft 9 kts 250°
2026-05-06 19:44 50.05011 8.58924 361 ft 4 kts 248°
2026-05-06 19:45 50.04998 8.58904 363 ft 2 kts 202°
2026-05-06 19:45 50.04985 8.58909 362 ft 2 kts 163°
2026-05-06 19:45 50.04973 8.58916 360 ft 2 kts 160°
2026-05-06 19:45 50.04966 8.58921 363 ft 3 kts 158°
2026-05-06 19:46 50.04956 8.58926 368 ft 2 kts 160°
2026-05-06 19:46 50.04942 8.58934 362 ft 2 kts 159°
2026-05-06 19:46 50.04930 8.58941 365 ft 0 kts 159°
2026-05-06 19:46 50.04928 8.58942 365 ft 0 kts 160°